Retour au catalogue

CZ-12 R/B

ActifLEO
NORAD 67068·ROCKET BODY·🇨🇳 China

Lancé Dec 11, 2025 depuis Wenchang Space Launch Site

Loading…

Prochains Passages (prochaines 24 heures)

TLE

FraisSource: Space-Track

Époque: Sep 14, 2026, 01:00 UTC

1 67068U 25295K   26257.04199503 -.00000055  00000-0  34597-4 0  9996
2 67068  49.9920 259.7259 0056767  43.7534 316.7864 14.41236284 39819

Suivez CZ-12 R/B en temps réel avec AllMySat

Download on the App Store